Location: El Escondido
(32.5691°N, 116.4250°W)
Time: 04:44:11
(UTC+00:00)

Cosmos 1515 Rocket - Pass Details

Date: 13 April 2024
Orbit: 602 x 627 km, 82.5° (Epoch: 28 May)

Event Time Altitude Azimuth Distance (km) Brightness Sun altitude
Exits shadow 12:16:11 - 196° (SSW) 2,370 6.2 -13.3°
Reaches altitude 10° 12:17:08 10° 198° (SSW) 1,993 5.8 -13.2°
Maximum altitude 12:21:28 57° 277° (W) 736 3.6 -12.3°
Drops below altitude 10° 12:25:52 10° 357° (N) 2,007 6.4 -11.4°
Sets 12:28:09 0° 2° (N) 2,917 7.3 -11.0°
